TimeCST,TemperatureF,Dew PointF,Humidity,Sea Level PressureIn,VisibilityMPH,Wind Direction,Wind SpeedMPH,Gust SpeedMPH,PrecipitationIn,Events,Conditions,WindDirDegrees,DateUTC
12:11 AM,30.2,28.4,93,29.92,2.0,SSE,13.8,-,N/A,,Overcast,150,2012-12-01 06:11:00
12:53 AM,30.0,28.9,96,29.96,2.0,SE,13.8,-,N/A,,Overcast,140,2012-12-01 06:53:00
1:53 AM,30.9,28.9,92,29.91,2.0,SSE,18.4,-,N/A,,Overcast,150,2012-12-01 07:53:00
2:53 AM,30.9,30.0,96,29.88,2.0,SSE,15.0,23.0,N/A,,Overcast,150,2012-12-01 08:53:00
3:11 AM,32.0,30.2,93,29.82,1.8,SSE,12.7,-,N/A,,Overcast,150,2012-12-01 09:11:00
3:53 AM,32.0,30.2,93,29.79,1.5,SSE,16.1,-,N/A,,Overcast,150,2012-12-01 09:53:00
4:53 AM,32.0,30.9,96,29.81,1.0,SSE,16.1,-,N/A,,Overcast,150,2012-12-01 10:53:00
5:53 AM,33.1,30.9,92,29.78,1.0,SSE,19.6,-,N/A,,Overcast,150,2012-12-01 11:53:00
6:53 AM,33.1,32.0,96,29.77,1.2,SSE,15.0,-,N/A,,Overcast,160,2012-12-01 12:53:00
7:53 AM,33.1,33.1,100,29.78,1.0,South,9.2,-,N/A,,Overcast,170,2012-12-01 13:53:00
8:29 AM,33.8,32.0,93,29.71,0.5,SSE,10.4,-,N/A,Fog,Fog,150,2012-12-01 14:29:00
8:53 AM,33.8,33.8,100,29.72,0.5,South,9.2,-,N/A,Fog,Fog,170,2012-12-01 14:53:00
9:53 AM,34.0,33.1,96,29.77,0.8,SSE,4.6,-,N/A,,Overcast,160,2012-12-01 15:53:00
10:39 AM,35.6,33.8,93,29.70,1.0,SSE,6.9,-,N/A,,Overcast,160,2012-12-01 16:39:00
10:53 AM,35.1,34.0,96,29.76,1.0,South,8.1,-,N/A,,Overcast,170,2012-12-01 16:53:00
11:18 AM,35.6,33.8,93,29.69,1.5,South,6.9,-,N/A,,Overcast,170,2012-12-01 17:18:00
11:53 AM,37.0,34.0,89,29.74,1.8,South,8.1,-,N/A,,Overcast,190,2012-12-01 17:53:00
12:01 PM,37.4,33.8,87,29.68,2.0,South,8.1,-,N/A,,Overcast,190,2012-12-01 18:01:00
12:48 PM,37.4,33.8,87,29.68,2.5,SSW,5.8,-,N/A,,Overcast,210,2012-12-01 18:48:00
12:53 PM,37.9,34.0,86,29.73,2.5,SW,5.8,-,N/A,,Overcast,220,2012-12-01 18:53:00
1:40 PM,37.4,33.8,87,29.67,3.0,SW,4.6,-,N/A,,Overcast,230,2012-12-01 19:40:00
1:53 PM,39.0,34.0,82,29.72,3.0,Calm,Calm,-,N/A,,Haze,0,2012-12-01 19:53:00
2:53 PM,39.0,34.0,82,29.74,3.0,West,4.6,-,N/A,,Haze,280,2012-12-01 20:53:00
3:45 PM,37.4,33.8,87,29.71,4.0,NW,4.6,-,N/A,,Overcast,320,2012-12-01 21:45:00
3:53 PM,37.0,32.0,82,29.76,4.0,NNW,3.5,-,N/A,,Haze,340,2012-12-01 21:53:00
4:24 PM,35.6,30.2,81,29.72,3.0,Calm,Calm,-,N/A,,Scattered Clouds,0,2012-12-01 22:24:00
4:53 PM,33.1,30.9,92,29.78,3.0,Calm,Calm,-,N/A,,Partly Cloudy,0,2012-12-01 22:53:00
5:14 PM,30.2,28.4,93,29.74,2.5,WNW,3.5,-,N/A,,Mostly Cloudy,300,2012-12-01 23:14:00
5:53 PM,30.9,28.9,92,29.79,2.5,North,4.6,-,N/A,,Overcast,350,2012-12-01 23:53:00
6:05 PM,32.0,30.2,93,29.74,3.0,NNW,4.6,-,N/A,,Overcast,330,2012-12-02 00:05:00
6:13 PM,30.2,28.4,93,29.74,2.5,NW,5.8,-,N/A,,Overcast,320,2012-12-02 00:13:00
6:28 PM,32.0,30.2,93,29.75,3.0,WNW,3.5,-,N/A,,Overcast,300,2012-12-02 00:28:00
6:53 PM,33.1,30.9,92,29.81,3.0,NNW,5.8,-,N/A,,Overcast,330,2012-12-02 00:53:00
7:53 PM,34.0,30.9,89,29.83,4.0,NW,4.6,-,N/A,,Overcast,310,2012-12-02 01:53:00
8:53 PM,33.1,30.9,92,29.85,4.0,WNW,4.6,-,N/A,,Overcast,290,2012-12-02 02:53:00
9:43 PM,33.8,30.2,87,29.81,3.0,West,3.5,-,N/A,,Overcast,280,2012-12-02 03:43:00
9:53 PM,33.1,30.9,92,29.87,3.0,West,4.6,-,N/A,,Overcast,280,2012-12-02 03:53:00
10:49 PM,33.8,30.2,87,29.82,2.5,WNW,4.6,-,N/A,,Overcast,290,2012-12-02 04:49:00
10:53 PM,32.0,30.9,96,29.88,2.5,NW,4.6,-,N/A,,Overcast,310,2012-12-02 04:53:00
11:53 PM,32.0,30.0,92,29.89,2.0,WNW,5.8,-,N/A,,Overcast,300,2012-12-02 05:53:00